Delta Ocean — SVAU9 — position and weather

sailwx.info

Track history (hours):
 
Tides and Currents Weather Stations Pressure Air Temp Water Temp Dewpoint Dewpoint Depression Visibility Wind Speed Wind Dir Waves Ship Positions

Delta Ocean

Last reported at 2016-May-27 07:32 UTC. Time now 2016-May-27 08:32 UTC.
Position S 30°00' E 030°58'.

Length 274 m; draft 14.7 m.

Type: Tanker. MMSI: 240958000.

Date/timePositionNaut miles runAvg speedWind from/ knotsBaromVisibWave heightAir tempDewpointWater temp
2016-May-27 07:32S 30°00' E 030°58'0 0.0
2016-May-27 06:32S 30°00' E 030°58'0 0.0
2016-May-27 05:29S 30°00' E 030°58'0 0.0
2016-May-27 04:32S 30°00' E 030°58'0 0.0
2016-May-27 03:32S 30°00' E 030°58'0 0.0
2016-May-27 02:32S 30°00' E 030°58'0 0.0
2016-May-27 01:32S 30°00' E 030°58'0 0.0
2016-May-27 00:32S 30°00' E 030°58'0 0.0
2016-May-26 23:32S 30°00' E 030°58'0 0.0
2016-May-26 22:32S 30°00' E 030°58'0 0.0
2016-May-26 21:32S 30°00' E 030°58'0 0.0
2016-May-26 20:29S 30°00' E 030°58'0 0.0
2016-May-26 19:32S 30°00' E 030°58'0 0.0
2016-May-26 18:32S 30°00' E 030°58'0 0.0
2016-May-26 17:32S 30°00' E 030°58'0 0.0
2016-May-26 16:32S 30°00' E 030°58'0 0.0
2016-May-26 15:32S 30°00' E 030°58'0 0.4
2016-May-26 14:33S 30°00' E 030°59'4 4.0
2016-May-26 13:34S 29°58' E 031°03'3 3.2
2016-May-26 12:33S 29°58' E 031°06'0 0.5
2016-May-26 11:33S 29°58' E 031°06'1 0.6
2016-May-26 10:33S 29°59' E 031°06'1 0.6
2016-May-26 09:33S 29°59' E 031°06'1 0.7
2016-May-26 08:33S 29°60' E 031°06'1 0.8
2016-May-26 07:33S 30°00' E 031°05'1 0.8
2016-May-26 06:33S 30°01' E 031°05'1 1.3
2016-May-26 05:33S 30°03' E 031°05'2 2.0
2016-May-26 04:33S 30°01' E 031°06'3 2.6
2016-May-26 03:30S 29°58' E 031°06'1 1.2
2016-May-26 02:30S 29°59' E 031°06'1 1.2
2016-May-26 01:33S 30°00' E 031°05'1 1.3
2016-May-26 00:33S 30°02' E 031°05'1 1.2
2016-May-25 23:30S 30°03' E 031°05'1 1.3
2016-May-25 22:33S 30°02' E 031°06'1111.4
2016-May-25 21:33S 29°51' E 031°10'8 7.2
2016-May-25 20:31S 29°44' E 031°07'0 0.1
2016-May-25 19:31S 29°44' E 031°07'0 0.0
2016-May-25 18:31S 29°44' E 031°07'0 0.0
2016-May-25 17:31S 29°44' E 031°07'0 0.0
2016-May-25 16:31S 29°44' E 031°07'0 0.0
2016-May-25 15:31S 29°44' E 031°07'0 0.0
2016-May-25 14:31S 29°44' E 031°07'0 0.0
2016-May-25 13:31S 29°44' E 031°07'0 0.0
2016-May-25 12:31S 29°44' E 031°07'0 0.0
2016-May-25 11:31S 29°44' E 031°07'0 0.0
2016-May-25 10:31S 29°44' E 031°07'0 0.0
2016-May-25 09:31S 29°44' E 031°07'0 0.0
2016-May-25 08:31S 29°44' E 031°07'0 0.0
2016-May-25 07:31S 29°44' E 031°07'0 0.0
2016-May-25 06:31S 29°44' E 031°07'0 0.0
2016-May-25 05:31S 29°44' E 031°07'0 0.0
2016-May-25 04:31S 29°44' E 031°07'0 0.0
2016-May-25 03:31S 29°44' E 031°07'0 0.0
2016-May-25 02:31S 29°44' E 031°07'0 0.0
2016-May-25 01:31S 29°44' E 031°07'0 0.0
2016-May-25 00:31S 29°44' E 031°07'0 0.0
2016-May-24 23:31S 29°44' E 031°07'0 0.0
2016-May-24 22:31S 29°44' E 031°07'0 0.0
2016-May-24 21:31S 29°44' E 031°07'0 0.0
2016-May-24 20:31S 29°44' E 031°07'0 0.1
2016-May-24 19:31S 29°44' E 031°07'0 0.1
2016-May-24 18:31S 29°44' E 031°07'0 0.1
2016-May-24 17:31S 29°44' E 031°07'0 0.2
2016-May-24 16:31S 29°45' E 031°07'0 0.0
2016-May-24 15:31S 29°44' E 031°07'0 0.0
2016-May-24 14:31S 29°44' E 031°07'0 0.0
2016-May-24 13:31S 29°44' E 031°07'0 0.0
2016-May-24 12:31S 29°45' E 031°07'0 0.0
2016-May-24 11:31S 29°44' E 031°07'0 0.0
2016-May-24 10:31S 29°44' E 031°07'0 0.0
2016-May-24 09:31S 29°44' E 031°07'0 0.1
2016-May-24 08:31S 29°45' E 031°07'0 0.1
2016-May-24 07:31S 29°45' E 031°07'0 0.1
2016-May-24 06:31S 29°45' E 031°07'0 0.0
2016-May-23 20:22S 29°45' E 031°07'0 0.0
2016-May-23 19:31S 29°45' E 031°07'0 0.0
2016-May-23 18:31S 29°45' E 031°07'0 0.0
2016-May-23 17:31S 29°45' E 031°07'0 0.0
2016-May-23 16:31S 29°45' E 031°07'0 0.0
2016-May-23 15:31S 29°45' E 031°07'0 0.0
2016-May-23 14:31S 29°45' E 031°07'0 0.0
2016-May-23 13:31S 29°45' E 031°07'0 0.0
2016-May-23 12:31S 29°45' E 031°07'0 0.0
2016-May-23 11:31S 29°45' E 031°07'0 0.0
2016-May-23 10:31S 29°45' E 031°07'0 0.0
2016-May-23 09:31S 29°45' E 031°07'0 0.0
2016-May-23 08:31S 29°45' E 031°07'0 0.0
2016-May-23 07:31S 29°45' E 031°07'0 0.0
2016-May-23 06:31S 29°45' E 031°07'0 0.0
2016-May-23 05:31S 29°45' E 031°07'0 0.0
2016-May-21 11:19S 29°45' E 031°07'0 0.0
2016-May-21 10:31S 29°45' E 031°07'0 0.0
2016-May-21 09:31S 29°45' E 031°07'0 0.0
2016-May-21 08:31S 29°45' E 031°07'0 0.0
2016-May-21 07:31S 29°45' E 031°07'0 0.0
2016-May-21 06:31S 29°45' E 031°07'0 0.0
2016-May-21 05:31S 29°45' E 031°07'0 0.0
2016-May-21 04:31S 29°44' E 031°07'0 0.0
2016-May-21 03:31S 29°45' E 031°07'0 0.0
2016-May-21 02:31S 29°45' E 031°07'0 0.0
2016-May-21 01:31S 29°45' E 031°07'0 0.0
2016-May-21 00:31S 29°44' E 031°07'0 0.0
2016-May-20 23:31S 29°44' E 031°07'0 0.0
2016-May-20 22:31S 29°44' E 031°07'0 0.0
2016-May-20 21:31S 29°44' E 031°07'0 0.0
2016-May-20 20:31S 29°44' E 031°07'0 0.0
2016-May-20 19:31S 29°44' E 031°07'0 0.0
2016-May-20 18:31S 29°44' E 031°07'0 0.0
2016-May-20 17:31S 29°44' E 031°07'0 0.0
2016-May-20 16:31S 29°44' E 031°07'0 0.0
2016-May-20 15:31S 29°44' E 031°07'0 0.0
2016-May-20 14:31S 29°44' E 031°07'0 0.0
2016-May-20 13:31S 29°44' E 031°07'0 0.0
2016-May-20 12:31S 29°44' E 031°07'0 0.0
2016-May-20 11:31S 29°44' E 031°07'0 0.0
2016-May-20 10:31S 29°44' E 031°07'0 0.0
2016-May-20 09:31S 29°44' E 031°07'0 0.0
2016-May-20 08:31S 29°44' E 031°07'0 0.0
2016-May-20 07:31S 29°44' E 031°07'0 0.0
2016-May-20 06:31S 29°44' E 031°07'0 0.0
2016-May-20 05:31S 29°44' E 031°07'0 0.0
2016-May-20 04:31S 29°44' E 031°07'0 0.0
2016-May-20 03:31S 29°44' E 031°07'0 0.0
2016-May-20 02:31S 29°44' E 031°07'0 0.0
2016-May-20 01:31S 29°44' E 031°07'0 0.0
2016-May-20 00:31S 29°44' E 031°07'0 0.0
2016-May-19 23:31S 29°44' E 031°07'0 0.0
2016-May-19 22:31S 29°44' E 031°07'0 0.0
2016-May-19 21:31S 29°44' E 031°07'0 0.0
2016-May-19 20:31S 29°44' E 031°07'0 0.0
2016-May-19 19:31S 29°44' E 031°07'0 0.1
2016-May-19 18:31S 29°44' E 031°07'0 0.0
2016-May-19 17:31S 29°44' E 031°07'0 0.0
2016-May-19 16:31S 29°44' E 031°07'0 0.1
2016-May-19 15:31S 29°44' E 031°07'0 0.1
2016-May-19 14:31S 29°45' E 031°07'0 0.0
2016-May-19 13:31S 29°45' E 031°07'0 0.0
2016-May-19 12:31S 29°45' E 031°07'0 0.0
2016-May-19 11:31S 29°45' E 031°07'0 0.0
2016-May-19 10:31S 29°45' E 031°07'0 0.0
2016-May-19 09:31S 29°45' E 031°07'0 0.0
2016-May-19 08:31S 29°45' E 031°07'0 0.0
2016-May-19 07:31S 29°45' E 031°07'0 0.1
2016-May-19 06:31S 29°45' E 031°07'0 0.0
2016-May-19 05:31S 29°45' E 031°07'0 0.0
2016-May-19 04:31S 29°45' E 031°07'0 0.0
2016-May-19 03:31S 29°45' E 031°07'0 0.0
2016-May-19 02:31S 29°45' E 031°07'0 0.0
2016-May-19 01:31S 29°45' E 031°07'0 0.0
2016-May-19 00:31S 29°45' E 031°07'0 0.0
2016-May-18 23:31S 29°45' E 031°07'0 0.0
2016-May-18 22:31S 29°45' E 031°07'0 0.0
2016-May-18 21:31S 29°45' E 031°07'0 0.0
2016-May-18 20:31S 29°45' E 031°07'0 0.0
2016-May-18 19:25S 29°45' E 031°07'0 0.0
2016-May-18 18:31S 29°45' E 031°07'0 0.0
2016-May-18 17:31S 29°45' E 031°07'0 0.0
2016-May-18 16:31S 29°45' E 031°07'0 0.1
2016-May-18 15:31S 29°45' E 031°07'0 0.0
2016-May-18 14:31S 29°45' E 031°07'0 0.0
2016-May-18 13:31S 29°45' E 031°07'0 0.0
2016-May-18 12:31S 29°44' E 031°07'0 0.0
2016-May-18 11:31S 29°44' E 031°07'0 0.0
2016-May-18 10:31S 29°44' E 031°07'0 0.0
2016-May-18 09:31S 29°44' E 031°07'0 0.0
2016-May-18 08:31S 29°44' E 031°07'0 0.0
2016-May-18 07:31S 29°44' E 031°07'0 0.0
2016-May-18 06:31S 29°44' E 031°07'0 0.0
2016-May-18 05:31S 29°44' E 031°07'0 0.0
2016-May-18 04:31S 29°45' E 031°07'0 0.0
2016-May-18 03:31S 29°45' E 031°07'0 0.0
2016-May-18 02:31S 29°45' E 031°07'0 0.0
2016-May-18 01:31S 29°45' E 031°07'0 0.0
2016-May-18 00:31S 29°45' E 031°07'0 0.0
2016-May-17 23:31S 29°44' E 031°07'0 0.0
2016-May-17 22:31S 29°44' E 031°07'0 0.0
2016-May-17 21:31S 29°44' E 031°07'0 0.0
2016-May-17 20:31S 29°44' E 031°07'0 0.0
2016-May-17 19:31S 29°44' E 031°07'0 0.0
2016-May-17 18:31S 29°44' E 031°07'0 0.0
2016-May-17 17:31S 29°44' E 031°07'0 0.0
2016-May-17 16:31S 29°44' E 031°07'0 0.0
2016-May-17 15:31S 29°44' E 031°07'0 0.0
2016-May-17 14:31S 29°44' E 031°07'0 0.0
2016-May-17 13:31S 29°44' E 031°07'0 0.0
2016-May-17 12:31S 29°44' E 031°07'0 0.0
2016-May-17 11:31S 29°44' E 031°07'0 0.0
2016-May-17 10:31S 29°44' E 031°07'0 0.0
2016-May-17 09:31S 29°44' E 031°07'0 0.0
2016-May-17 08:31S 29°44' E 031°07'  
Track history (hours):
 
Tides and Currents Weather Stations Pressure Air Temp Water Temp Dewpoint Dewpoint Depression Visibility Wind Speed Wind Dir Waves Ship Positions

Delta Ocean

Last reported at 2016-May-27 07:32 UTC. Time now 2016-May-27 08:32 UTC.
Position S 30°00' E 030°58'.

Length 274 m; draft 14.7 m.

Type: Tanker. MMSI: 240958000.

Date/timePositionNaut miles runAvg speedWind from/ knotsBaromVisibWave heightAir tempDewpointWater temp
2016-May-27 07:32S 30°00' E 030°58'0 0.0
2016-May-27 06:32S 30°00' E 030°58'0 0.0
2016-May-27 05:29S 30°00' E 030°58'0 0.0
2016-May-27 04:32S 30°00' E 030°58'0 0.0
2016-May-27 03:32S 30°00' E 030°58'0 0.0
2016-May-27 02:32S 30°00' E 030°58'0 0.0
2016-May-27 01:32S 30°00' E 030°58'0 0.0
2016-May-27 00:32S 30°00' E 030°58'0 0.0
2016-May-26 23:32S 30°00' E 030°58'0 0.0
2016-May-26 22:32S 30°00' E 030°58'0 0.0
2016-May-26 21:32S 30°00' E 030°58'0 0.0
2016-May-26 20:29S 30°00' E 030°58'0 0.0
2016-May-26 19:32S 30°00' E 030°58'0 0.0
2016-May-26 18:32S 30°00' E 030°58'0 0.0
2016-May-26 17:32S 30°00' E 030°58'0 0.0
2016-May-26 16:32S 30°00' E 030°58'0 0.0
2016-May-26 15:32S 30°00' E 030°58'0 0.4
2016-May-26 14:33S 30°00' E 030°59'4 4.0
2016-May-26 13:34S 29°58' E 031°03'3 3.2
2016-May-26 12:33S 29°58' E 031°06'0 0.5
2016-May-26 11:33S 29°58' E 031°06'1 0.6
2016-May-26 10:33S 29°59' E 031°06'1 0.6
2016-May-26 09:33S 29°59' E 031°06'1 0.7
2016-May-26 08:33S 29°60' E 031°06'1 0.8
2016-May-26 07:33S 30°00' E 031°05'1 0.8
2016-May-26 06:33S 30°01' E 031°05'1 1.3
2016-May-26 05:33S 30°03' E 031°05'2 2.0
2016-May-26 04:33S 30°01' E 031°06'3 2.6
2016-May-26 03:30S 29°58' E 031°06'1 1.2
2016-May-26 02:30S 29°59' E 031°06'1 1.2
2016-May-26 01:33S 30°00' E 031°05'1 1.3
2016-May-26 00:33S 30°02' E 031°05'1 1.2
2016-May-25 23:30S 30°03' E 031°05'1 1.3
2016-May-25 22:33S 30°02' E 031°06'1111.4
2016-May-25 21:33S 29°51' E 031°10'8 7.2
2016-May-25 20:31S 29°44' E 031°07'0 0.1
2016-May-25 19:31S 29°44' E 031°07'0 0.0
2016-May-25 18:31S 29°44' E 031°07'0 0.0
2016-May-25 17:31S 29°44' E 031°07'0 0.0
2016-May-25 16:31S 29°44' E 031°07'0 0.0
2016-May-25 15:31S 29°44' E 031°07'0 0.0
2016-May-25 14:31S 29°44' E 031°07'0 0.0
2016-May-25 13:31S 29°44' E 031°07'0 0.0
2016-May-25 12:31S 29°44' E 031°07'0 0.0
2016-May-25 11:31S 29°44' E 031°07'0 0.0
2016-May-25 10:31S 29°44' E 031°07'0 0.0
2016-May-25 09:31S 29°44' E 031°07'0 0.0
2016-May-25 08:31S 29°44' E 031°07'0 0.0
2016-May-25 07:31S 29°44' E 031°07'0 0.0
2016-May-25 06:31S 29°44' E 031°07'0 0.0
2016-May-25 05:31S 29°44' E 031°07'0 0.0
2016-May-25 04:31S 29°44' E 031°07'0 0.0
2016-May-25 03:31S 29°44' E 031°07'0 0.0
2016-May-25 02:31S 29°44' E 031°07'0 0.0
2016-May-25 01:31S 29°44' E 031°07'0 0.0
2016-May-25 00:31S 29°44' E 031°07'0 0.0
2016-May-24 23:31S 29°44' E 031°07'0 0.0
2016-May-24 22:31S 29°44' E 031°07'0 0.0
2016-May-24 21:31S 29°44' E 031°07'0 0.0
2016-May-24 20:31S 29°44' E 031°07'0 0.1
2016-May-24 19:31S 29°44' E 031°07'0 0.1
2016-May-24 18:31S 29°44' E 031°07'0 0.1
2016-May-24 17:31S 29°44' E 031°07'0 0.2
2016-May-24 16:31S 29°45' E 031°07'0 0.0
2016-May-24 15:31S 29°44' E 031°07'0 0.0
2016-May-24 14:31S 29°44' E 031°07'0 0.0
2016-May-24 13:31S 29°44' E 031°07'0 0.0
2016-May-24 12:31S 29°45' E 031°07'0 0.0
2016-May-24 11:31S 29°44' E 031°07'0 0.0
2016-May-24 10:31S 29°44' E 031°07'0 0.0
2016-May-24 09:31S 29°44' E 031°07'0 0.1
2016-May-24 08:31S 29°45' E 031°07'0 0.1
2016-May-24 07:31S 29°45' E 031°07'0 0.1
2016-May-24 06:31S 29°45' E 031°07'0 0.0
2016-May-23 20:22S 29°45' E 031°07'0 0.0
2016-May-23 19:31S 29°45' E 031°07'0 0.0
2016-May-23 18:31S 29°45' E 031°07'0 0.0
2016-May-23 17:31S 29°45' E 031°07'0 0.0
2016-May-23 16:31S 29°45' E 031°07'0 0.0
2016-May-23 15:31S 29°45' E 031°07'0 0.0
2016-May-23 14:31S 29°45' E 031°07'0 0.0
2016-May-23 13:31S 29°45' E 031°07'0 0.0
2016-May-23 12:31S 29°45' E 031°07'0 0.0
2016-May-23 11:31S 29°45' E 031°07'0 0.0
2016-May-23 10:31S 29°45' E 031°07'0 0.0
2016-May-23 09:31S 29°45' E 031°07'0 0.0
2016-May-23 08:31S 29°45' E 031°07'0 0.0
2016-May-23 07:31S 29°45' E 031°07'0 0.0
2016-May-23 06:31S 29°45' E 031°07'0 0.0
2016-May-23 05:31S 29°45' E 031°07'0 0.0
2016-May-21 11:19S 29°45' E 031°07'0 0.0
2016-May-21 10:31S 29°45' E 031°07'0 0.0
2016-May-21 09:31S 29°45' E 031°07'0 0.0
2016-May-21 08:31S 29°45' E 031°07'0 0.0
2016-May-21 07:31S 29°45' E 031°07'0 0.0
2016-May-21 06:31S 29°45' E 031°07'0 0.0
2016-May-21 05:31S 29°45' E 031°07'0 0.0
2016-May-21 04:31S 29°44' E 031°07'0 0.0
2016-May-21 03:31S 29°45' E 031°07'0 0.0
2016-May-21 02:31S 29°45' E 031°07'0 0.0
2016-May-21 01:31S 29°45' E 031°07'0 0.0
2016-May-21 00:31S 29°44' E 031°07'0 0.0
2016-May-20 23:31S 29°44' E 031°07'0 0.0
2016-May-20 22:31S 29°44' E 031°07'0 0.0
2016-May-20 21:31S 29°44' E 031°07'0 0.0
2016-May-20 20:31S 29°44' E 031°07'0 0.0
2016-May-20 19:31S 29°44' E 031°07'0 0.0
2016-May-20 18:31S 29°44' E 031°07'0 0.0
2016-May-20 17:31S 29°44' E 031°07'0 0.0
2016-May-20 16:31S 29°44' E 031°07'0 0.0
2016-May-20 15:31S 29°44' E 031°07'0 0.0
2016-May-20 14:31S 29°44' E 031°07'0 0.0
2016-May-20 13:31S 29°44' E 031°07'0 0.0
2016-May-20 12:31S 29°44' E 031°07'0 0.0
2016-May-20 11:31S 29°44' E 031°07'0 0.0
2016-May-20 10:31S 29°44' E 031°07'0 0.0
2016-May-20 09:31S 29°44' E 031°07'0 0.0
2016-May-20 08:31S 29°44' E 031°07'0 0.0
2016-May-20 07:31S 29°44' E 031°07'0 0.0
2016-May-20 06:31S 29°44' E 031°07'0 0.0
2016-May-20 05:31S 29°44' E 031°07'0 0.0
2016-May-20 04:31S 29°44' E 031°07'0 0.0
2016-May-20 03:31S 29°44' E 031°07'0 0.0
2016-May-20 02:31S 29°44' E 031°07'0 0.0
2016-May-20 01:31S 29°44' E 031°07'0 0.0
2016-May-20 00:31S 29°44' E 031°07'0 0.0
2016-May-19 23:31S 29°44' E 031°07'0 0.0
2016-May-19 22:31S 29°44' E 031°07'0 0.0
2016-May-19 21:31S 29°44' E 031°07'0 0.0
2016-May-19 20:31S 29°44' E 031°07'0 0.0
2016-May-19 19:31S 29°44' E 031°07'0 0.1
2016-May-19 18:31S 29°44' E 031°07'0 0.0
2016-May-19 17:31S 29°44' E 031°07'0 0.0
2016-May-19 16:31S 29°44' E 031°07'0 0.1
2016-May-19 15:31S 29°44' E 031°07'0 0.1
2016-May-19 14:31S 29°45' E 031°07'0 0.0
2016-May-19 13:31S 29°45' E 031°07'0 0.0
2016-May-19 12:31S 29°45' E 031°07'0 0.0
2016-May-19 11:31S 29°45' E 031°07'0 0.0
2016-May-19 10:31S 29°45' E 031°07'0 0.0
2016-May-19 09:31S 29°45' E 031°07'0 0.0
2016-May-19 08:31S 29°45' E 031°07'0 0.0
2016-May-19 07:31S 29°45' E 031°07'0 0.1
2016-May-19 06:31S 29°45' E 031°07'0 0.0
2016-May-19 05:31S 29°45' E 031°07'0 0.0
2016-May-19 04:31S 29°45' E 031°07'0 0.0
2016-May-19 03:31S 29°45' E 031°07'0 0.0
2016-May-19 02:31S 29°45' E 031°07'0 0.0
2016-May-19 01:31S 29°45' E 031°07'0 0.0
2016-May-19 00:31S 29°45' E 031°07'0 0.0
2016-May-18 23:31S 29°45' E 031°07'0 0.0
2016-May-18 22:31S 29°45' E 031°07'0 0.0
2016-May-18 21:31S 29°45' E 031°07'0 0.0
2016-May-18 20:31S 29°45' E 031°07'0 0.0
2016-May-18 19:25S 29°45' E 031°07'0 0.0
2016-May-18 18:31S 29°45' E 031°07'0 0.0
2016-May-18 17:31S 29°45' E 031°07'0 0.0
2016-May-18 16:31S 29°45' E 031°07'0 0.1
2016-May-18 15:31S 29°45' E 031°07'0 0.0
2016-May-18 14:31S 29°45' E 031°07'0 0.0
2016-May-18 13:31S 29°45' E 031°07'0 0.0
2016-May-18 12:31S 29°44' E 031°07'0 0.0
2016-May-18 11:31S 29°44' E 031°07'0 0.0
2016-May-18 10:31S 29°44' E 031°07'0 0.0
2016-May-18 09:31S 29°44' E 031°07'0 0.0
2016-May-18 08:31S 29°44' E 031°07'0 0.0
2016-May-18 07:31S 29°44' E 031°07'0 0.0
2016-May-18 06:31S 29°44' E 031°07'0 0.0
2016-May-18 05:31S 29°44' E 031°07'0 0.0
2016-May-18 04:31S 29°45' E 031°07'0 0.0
2016-May-18 03:31S 29°45' E 031°07'0 0.0
2016-May-18 02:31S 29°45' E 031°07'0 0.0
2016-May-18 01:31S 29°45' E 031°07'0 0.0
2016-May-18 00:31S 29°45' E 031°07'0 0.0
2016-May-17 23:31S 29°44' E 031°07'0 0.0
2016-May-17 22:31S 29°44' E 031°07'0 0.0
2016-May-17 21:31S 29°44' E 031°07'0 0.0
2016-May-17 20:31S 29°44' E 031°07'0 0.0
2016-May-17 19:31S 29°44' E 031°07'0 0.0
2016-May-17 18:31S 29°44' E 031°07'0 0.0
2016-May-17 17:31S 29°44' E 031°07'0 0.0
2016-May-17 16:31S 29°44' E 031°07'0 0.0
2016-May-17 15:31S 29°44' E 031°07'0 0.0
2016-May-17 14:31S 29°44' E 031°07'0 0.0
2016-May-17 13:31S 29°44' E 031°07'0 0.0
2016-May-17 12:31S 29°44' E 031°07'0 0.0
2016-May-17 11:31S 29°44' E 031°07'0 0.0
2016-May-17 10:31S 29°44' E 031°07'0 0.0
2016-May-17 09:31S 29°44' E 031°07'0 0.0
2016-May-17 08:31S 29°44' E 031°07'  

Dump ship's entire track history